This demonstration page uses our WeatherBlox Daily Observations layout. Learn more.

41.55636, -103.73856

Hourly Observations for January 11, 2020

Temp ( °F °C ) Dew Point ( °F °C ) Humidity (%) Winds ( mph kmh ) Pressure ( in mb ) Visibility ( mi km ) Precip ( " mm )
12:58 am 00:58 Clear 11 -11.9 6 -14.2 83 83 ESE 9 15 30.34 1027 10 16.0934 0 0
1:58 am 01:58 Clear 6 -14.4 2 -16.4 85 85 SSW 6 9 30.35 1028 10 16.0934 0 0
2:58 am 02:58 Clear 4 -15.7 1 -17.5 86 86 SSW 6 9 30.37 1028 10 16.0934 0 0
3:58 am 03:58 Clear 6 -14.4 3 -16.1 87 87 SSW 6 9 30.33 1027 10 16.0934 0 0
4:58 am 04:58 Clear 10 -12.5 4 -15.3 80 80 SSW 10 17 30.31 1027 10 16.0934 0 0
5:58 am 05:58 Clear 10 -12.5 6 -14.7 84 84 SSW 14 22 30.29 1026 10 16.0934 0 0
6:58 am 06:58 Clear 9 -12.6 5 -15.2 81 81 SSW 20 31 30.26 1025 10 16.0934 0 0
7:58 am 07:58 Clear 10 -12 6 -14.5 82 82 SSW 25 41 30.19 1023 10 16.0934 0 0
8:58 am 08:58 Clear 10 -12 6 -14.7 81 81 SSW 25 41 30.16 1022 10 16.0934 0 0
9:58 am 09:58 Clear 11 -11.8 6 -14.5 81 81 SSW 28 44 30.11 1020 10 16.0934 0 0
10:58 am 10:58 Clear 12 -11.1 6 -14.2 78 78 SSW 28 44 30.07 1018 10 16.0934 0 0
11:58 am 11:58 Clear 13 -10.3 7 -14 75 75 SSW 24 39 30.06 1018 10 16.0934 0 0
12:58 pm 12:58 Clear 15 -9.6 7 -14.1 70 70 SSW 26 43 30.08 1019 10 16.0934 0 0
1:58 pm 13:58 Clear 15 -9.6 6 -14.4 68 68 SSW 31 50 30.09 1019 10 16.0934 0 0
2:58 pm 14:58 Sunny 15 -9.5 6 -14.6 67 67 SSW 29 46 30.09 1019 10 16.0934 0 0
3:58 pm 15:58 Partly Cloudy 19 -7.3 8 -13.5 62 62 SSW 33 54 30.03 1017 10 16.0934 0 0
4:58 pm 16:58 Mostly Cloudy 23 -4.9 13 -10.7 64 64 SSW 24 39 30 1016 10 16.0934 0 0
5:58 pm 17:58 Mostly Cloudy 25 -3.7 15 -9.5 64 64 SSW 21 33 29.97 1015 10 16.0934 0 0
6:58 pm 18:58 Partly Cloudy 31 -0.5 17 -8.1 57 57 SW 13 20 29.9 1012 10 16.0934 0 0
7:58 pm 19:58 Sunny 35 1.5 20 -6.5 56 56 SW 8 13 29.85 1011 10 16.0934 0 0
8:58 pm 20:58 Sunny 41 5 19 -7 42 42 NW 18 30 29.82 1010 10 16.0934 0 0
9:58 pm 21:58 Sunny 38 3.1 20 -6.9 48 48 NW 13 20 29.84 1011 10 16.0934 0 0
10:58 pm 22:58 Mostly Cloudy 37 2.5 19 -7.5 48 48 WNW 12 19 29.86 1011 10 16.0934 0 0
11:58 pm 23:58 Mostly Cloudy 33 0.8 18 -7.8 53 53 NW 12 19 29.88 1012 10 16.0934 0 0

Powered by AerisWeather